Location: Newark
(43.0000°N, 1.6781°W)
Time: 15:13:27
(UTC+00:00)

PRISM - Pass Details

Date: 08 December 2022
Orbit: 544 x 572 km, 98.3° (Epoch: 05 February)

Event Time Altitude Azimuth Distance (km) Brightness Sun altitude
Rises 15:46:15 0° 120° (ESE) 2,729 ? 6.0°
Reaches altitude 10° 15:49:10 10° 96° (E) 1,847 ? 5.6°
Drops below altitude 10° 15:53:35 10° 29° (NNE) 1,866 ? 4.9°
Maximum altitude 17:25:49 50° 260° (W) 722 ? -9.6°
Sets 17:31:58 0° 342° (NNW) 2,774 ? -10.7°
